| time (UTC) | temp F | wind direction | speed MPH | gust MPH | rain 1hr in | rain 24hr in | rain mn in | humidity % | barometer mb |
| 20260509112518 | 71 | 224 | 2.0 | 2.0 | 0.00 | 0.04 | 0.00 | 86 | 1010.0 |
| 20260509111518 | 71 | 223 | 2.0 | 3.0 | 0.00 | 0.04 | 0.00 | 85 | 1009.9 |
| 20260509110518 | 72 | 222 | 2.0 | 4.0 | 0.00 | 0.04 | 0.00 | 84 | 1009.8 |
| 20260509105516 | 72 | 225 | 2.0 | 3.0 | 0.00 | 0.04 | 0.00 | 83 | 1009.7 |
| 20260509104516 | 72 | 223 | 2.0 | 4.0 | 0.00 | 0.04 | 0.00 | 82 | 1009.6 |
| 20260509103516 | 72 | 46 | 1.0 | 1.0 | 0.00 | 0.04 | 0.00 | 82 | 1009.7 |
| 20260509102516 | 72 | 46 | 1.0 | 1.0 | 0.00 | 0.04 | 0.00 | 85 | 1009.6 |
| 20260509101516 | 72 | 46 | 1.0 | 2.0 | 0.00 | 0.04 | 0.00 | 88 | 1009.6 |
| 20260509100516 | 71 | 49 | 1.0 | 2.0 | 0.00 | 0.04 | 0.00 | 89 | 1009.6 |
| 20260509095516 | 71 | 203 | 3.0 | 8.0 | 0.00 | 0.04 | 0.00 | 90 | 1009.2 |
| 20260509094516 | 71 | 221 | 4.0 | 10.0 | 0.00 | 0.04 | 0.00 | 90 | 1007.6 |
| 20260509093517 | 71 | 221 | 5.0 | 10.0 | 0.00 | 0.04 | 0.00 | 90 | 1007.2 |
| 20260509092517 | 71 | 222 | 4.0 | 7.0 | 0.00 | 0.04 | 0.00 | 90 | 1006.9 |
| 20260509091537 | 71 | 221 | 6.0 | 9.0 | 0.00 | 0.04 | 0.00 | 90 | 1007.0 |
| 20260509090517 | 71 | 222 | 5.0 | 9.0 | 0.00 | 0.04 | 0.00 | 90 | 1007.2 |
| 20260509085517 | 71 | 222 | 6.0 | 11.0 | 0.00 | 0.04 | 0.00 | 90 | 1007.3 |
| 20260509084517 | 71 | 223 | 7.0 | 10.0 | 0.00 | 0.04 | 0.00 | 90 | 1007.4 |
| 20260509083518 | 70 | 221 | 6.0 | 11.0 | 0.00 | 0.04 | 0.00 | 91 | 1007.4 |
| 20260509082518 | 70 | 218 | 3.0 | 7.0 | 0.00 | 0.04 | 0.00 | 92 | 1008.1 |
| 20260509081518 | 70 | 49 | 2.0 | 3.0 | 0.00 | 0.04 | 0.00 | 91 | 1008.7 |
| 20260509080518 | 70 | 63 | 2.0 | 4.0 | 0.00 | 0.04 | 0.00 | 91 | 1009.1 |
| 20260509075616 | 70 | 221 | 2.0 | 4.0 | 0.00 | 0.04 | 0.00 | 90 | 1009.7 |
| 20260509074516 | 71 | 221 | 3.0 | 5.0 | 0.00 | 0.04 | 0.00 | 89 | 1010.3 |
| 20260509073516 | 71 | 191 | 2.0 | 4.0 | 0.00 | 0.04 | 0.00 | 89 | 1010.6 |
| 20260509072556 | 71 | 54 | 1.0 | 2.0 | 0.00 | 0.04 | 0.00 | 89 | 1011.1 |
| 20260509071617 | 71 | 49 | 1.0 | 2.0 | 0.00 | 0.04 | 0.00 | 89 | 1011.5 |
| 20260509070536 | 71 | 50 | 1.0 | 2.0 | 0.00 | 0.04 | 0.00 | 91 | 1011.8 |
| 20260509065557 | 71 | 46 | 1.0 | 1.0 | 0.00 | 0.04 | 0.00 | 91 | 1011.7 |
| 20260509064537 | 70 | 45 | 1.0 | 1.0 | 0.00 | 0.04 | 0.00 | 92 | 1011.6 |
| 20260509063517 | 70 | 45 | 1.0 | 1.0 | 0.00 | 0.04 | 0.00 | 91 | 1011.4 |
| 20260509062517 | 70 | 49 | 1.0 | 1.0 | 0.00 | 0.04 | 0.00 | 92 | 1011.5 |
| 20260509061517 | 70 | 47 | 1.0 | 1.0 | 0.00 | 0.04 | 0.00 | 92 | 1011.6 |
| 20260509060517 | 70 | 46 | 1.0 | 2.0 | 0.00 | 0.04 | 0.00 | 91 | 1011.4 |
| 20260509055517 | 70 | 47 | 1.0 | 1.0 | 0.00 | 0.04 | 0.00 | 91 | 1011.6 |
| 20260509054518 | 70 | 47 | 1.0 | 1.0 | 0.00 | 0.04 | 0.00 | 91 | 1011.6 |
| 20260509053518 | 70 | 47 | 1.0 | 1.0 | 0.00 | 0.04 | 0.00 | 90 | 1011.5 |
| 20260509052518 | 70 | 46 | 1.0 | 1.0 | 0.00 | 0.04 | 0.00 | 90 | 1010.7 |
| 20260509051518 | 71 | 47 | 1.0 | 1.0 | 0.00 | 0.04 | 0.00 | 89 | 1010.7 |
| 20260509050535 | 71 | 223 | 1.0 | 2.0 | 0.00 | 0.04 | 0.00 | 89 | 1010.6 |
| 20260509045536 | 71 | 178 | 1.0 | 3.0 | 0.00 | 0.04 | 0.04 | 88 | 1010.5 |
| 20260509044516 | 71 | 223 | 1.0 | 2.0 | 0.00 | 0.04 | 0.04 | 88 | 1010.6 |
| 20260509043516 | 72 | 225 | 1.0 | 2.0 | 0.00 | 0.04 | 0.04 | 87 | 1010.7 |
| 20260509042516 | 72 | 223 | 1.0 | 1.0 | 0.00 | 0.04 | 0.04 | 86 | 1010.8 |
| 20260509041516 | 72 | 46 | 0.0 | 1.0 | 0.00 | 0.04 | 0.04 | 85 | 1011.0 |
| 20260509040516 | 72 | 46 | 1.0 | 1.0 | 0.00 | 0.04 | 0.04 | 85 | 1010.9 |
| 20260509035517 | 72 | 46 | 1.0 | 2.0 | 0.00 | 0.04 | 0.04 | 85 | 1010.7 |
| 20260509034517 | 73 | 140 | 1.0 | 3.0 | 0.00 | 0.04 | 0.04 | 84 | 1010.2 |
| 20260509033517 | 73 | 219 | 2.0 | 4.0 | 0.00 | 0.04 | 0.04 | 84 | 1010.2 |
| 20260509032517 | 73 | 173 | 1.0 | 4.0 | 0.00 | 0.04 | 0.04 | 83 | 1009.9 |
| 20260509031517 | 73 | 215 | 2.0 | 4.0 | 0.00 | 0.04 | 0.04 | 82 | 1009.7 |
| 20260509030517 | 73 | 209 | 2.0 | 3.0 | 0.00 | 0.04 | 0.04 | 82 | 1009.8 |
| 20260509025518 | 73 | 142 | 1.0 | 2.0 | 0.00 | 0.04 | 0.04 | 82 | 1009.5 |
| 20260509024517 | 73 | 154 | 1.0 | 4.0 | 0.00 | 0.04 | 0.04 | 82 | 1009.1 |
| 20260509023518 | 74 | 212 | 2.0 | 4.0 | 0.00 | 0.04 | 0.04 | 81 | 1009.0 |
| 20260509022538 | 74 | 214 | 1.0 | 2.0 | 0.00 | 0.04 | 0.04 | 81 | 1009.2 |
| 20260509021518 | 74 | 216 | 1.0 | 3.0 | 0.00 | 0.04 | 0.04 | 81 | 1009.2 |
| 20260509020515 | 74 | 159 | 1.0 | 1.0 | 0.00 | 0.04 | 0.04 | 80 | 1009.2 |
| 20260509015516 | 74 | 49 | 1.0 | 1.0 | 0.00 | 0.04 | 0.04 | 80 | 1009.3 |
| 20260509014536 | 74 | 49 | 1.0 | 1.0 | 0.00 | 0.04 | 0.04 | 80 | 1009.3 |
| 20260509013516 | 74 | 51 | 1.0 | 1.0 | 0.00 | 0.04 | 0.04 | 79 | 1009.1 |
| 20260509012516 | 74 | 46 | 1.0 | 1.0 | 0.00 | 0.04 | 0.04 | 79 | 1009.1 |
| 20260509011517 | 74 | 47 | 1.0 | 1.0 | 0.00 | 0.04 | 0.04 | 79 | 1008.9 |
| 20260509010517 | 74 | 222 | 1.0 | 2.0 | 0.00 | 0.04 | 0.04 | 79 | 1008.8 |
| 20260509005537 | 74 | 222 | 1.0 | 2.0 | 0.00 | 0.04 | 0.04 | 79 | 1008.6 |
| 20260509004517 | 74 | 222 | 2.0 | 3.0 | 0.00 | 0.04 | 0.04 | 78 | 1008.5 |
| 20260509003538 | 74 | 138 | 1.0 | 4.0 | 0.00 | 0.04 | 0.04 | 78 | 1008.5 |
| 20260509002517 | 75 | 50 | 1.0 | 3.0 | 0.00 | 0.04 | 0.04 | 77 | 1008.5 |
| 20260509001518 | 75 | 221 | 2.0 | 4.0 | 0.00 | 0.04 | 0.04 | 77 | 1008.6 |
| 20260509000518 | 75 | 219 | 2.0 | 5.0 | 0.00 | 0.04 | 0.04 | 76 | 1008.7 |
| 20260508235518 | 75 | 199 | 1.0 | 7.0 | 0.00 | 0.04 | 0.04 | 76 | 1008.8 |
| 20260508234518 | 75 | 214 | 1.0 | 9.0 | 0.00 | 0.04 | 0.04 | 76 | 1008.8 |
| 20260508233515 | 75 | 217 | 2.0 | 6.0 | 0.00 | 0.04 | 0.04 | 75 | 1008.8 |
| 20260508232556 | 75 | 221 | 2.0 | 6.0 | 0.00 | 0.04 | 0.04 | 75 | 1008.8 |
| 20260508231516 | 76 | 219 | 2.0 | 5.0 | 0.00 | 0.04 | 0.04 | 73 | 1008.8 |
| 20260508230516 | 76 | 124 | 1.0 | 4.0 | 0.00 | 0.04 | 0.04 | 72 | 1008.7 |
| 20260508225516 | 75 | 224 | 2.0 | 6.0 | 0.00 | 0.04 | 0.04 | 74 | 1008.7 |
| 20260508224537 | 75 | 213 | 2.0 | 6.0 | 0.00 | 0.04 | 0.04 | 73 | 1008.7 |
| 20260508223516 | 75 | 207 | 2.0 | 7.0 | 0.00 | 0.04 | 0.04 | 73 | 1008.7 |
| 20260508222517 | 75 | 227 | 2.0 | 7.0 | 0.00 | 0.04 | 0.04 | 74 | 1008.8 |
| 20260508221517 | 75 | 189 | 2.0 | 5.0 | 0.00 | 0.04 | 0.04 | 72 | 1008.9 |
| 20260508220516 | 74 | 230 | 2.0 | 5.0 | 0.00 | 0.04 | 0.04 | 74 | 1009.0 |
| 20260508215557 | 73 | 226 | 2.0 | 5.0 | 0.00 | 0.04 | 0.04 | 73 | 1009.1 |
| 20260508214538 | 73 | 161 | 2.0 | 5.0 | 0.00 | 0.04 | 0.04 | 74 | 1009.3 |
| 20260508213517 | 72 | 218 | 2.0 | 7.0 | 0.00 | 0.04 | 0.04 | 76 | 1009.5 |
| 20260508212517 | 71 | 202 | 1.0 | 5.0 | 0.01 | 0.04 | 0.04 | 79 | 1009.6 |
| 20260508211538 | 70 | 232 | 3.0 | 6.0 | 0.01 | 0.04 | 0.04 | 82 | 1010.0 |
| 20260508210518 | 69 | 221 | 3.0 | 7.0 | 0.04 | 0.04 | 0.04 | 84 | 1010.1 |
| 20260508205538 | 69 | 221 | 1.0 | 5.0 | 0.04 | 0.04 | 0.04 | 85 | 1010.2 |
| 20260508204518 | 68 | 104 | 1.0 | 2.0 | 0.04 | 0.04 | 0.04 | 86 | 1010.3 |
| 20260508203518 | 69 | 203 | 2.0 | 8.0 | 0.04 | 0.04 | 0.04 | 84 | 1009.8 |
| 20260508202516 | 70 | 71 | 1.0 | 4.0 | 0.04 | 0.04 | 0.04 | 81 | 1010.1 |
| 20260508201516 | 71 | 46 | 1.0 | 2.0 | 0.04 | 0.04 | 0.04 | 77 | 1010.9 |
| 20260508200516 | 71 | 223 | 2.0 | 4.0 | 0.01 | 0.01 | 0.01 | 70 | 1011.4 |
| 20260508195516 | 72 | 222 | 4.0 | 7.0 | 0.00 | 0.00 | 0.00 | 68 | 1011.7 |
| 20260508194517 | 72 | 224 | 3.0 | 5.0 | 0.00 | 0.00 | 0.00 | 67 | 1011.5 |
| 20260508193517 | 73 | 224 | 3.0 | 4.0 | 0.00 | 0.00 | 0.00 | 66 | 1011.4 |
| 20260508192517 | 74 | 222 | 3.0 | 5.0 | 0.00 | 0.00 | 0.00 | 64 | 1011.3 |
| 20260508191517 | 73 | 223 | 4.0 | 8.0 | 0.00 | 0.00 | 0.00 | 65 | 1011.3 |
| 20260508190517 | 73 | 223 | 4.0 | 7.0 | 0.00 | 0.00 | 0.00 | 66 | 1011.6 |
| 20260508185517 | 73 | 222 | 3.0 | 5.0 | 0.00 | 0.00 | 0.00 | 66 | 1011.7 |
| 20260508184518 | 74 | 223 | 6.0 | 8.0 | 0.00 | 0.00 | 0.00 | 65 | 1011.8 |
| 20260508183518 | 74 | 217 | 2.0 | 8.0 | 0.00 | 0.00 | 0.00 | 65 | 1011.8 |
| 20260508182516 | 75 | 216 | 2.0 | 5.0 | 0.00 | 0.00 | 0.00 | 64 | 1012.0 |
| 20260508181516 | 75 | 222 | 2.0 | 4.0 | 0.00 | 0.00 | 0.00 | 62 | 1012.2 |
| 20260508180516 | 75 | 160 | 2.0 | 5.0 | 0.00 | 0.00 | 0.00 | 61 | 1011.9 |
| 20260508175515 | 74 | 219 | 2.0 | 5.0 | 0.00 | 0.00 | 0.00 | 63 | 1012.0 |
| 20260508174536 | 73 | 194 | 3.0 | 7.0 | 0.00 | 0.00 | 0.00 | 65 | 1012.3 |
| 20260508173515 | 73 | 170 | 1.0 | 4.0 | 0.00 | 0.00 | 0.00 | 65 | 1012.6 |
| 20260508172516 | 72 | 182 | 1.0 | 5.0 | 0.00 | 0.00 | 0.00 | 65 | 1012.8 |
| 20260508171536 | 73 | 220 | 2.0 | 6.0 | 0.00 | 0.00 | 0.00 | 65 | 1013.1 |
| 20260508170516 | 73 | 131 | 1.0 | 4.0 | 0.00 | 0.00 | 0.00 | 63 | 1013.1 |
| 20260508165536 | 73 | 140 | 1.0 | 5.0 | 0.00 | 0.00 | 0.00 | 63 | 1013.1 |
| 20260508164537 | 72 | 191 | 1.0 | 5.0 | 0.00 | 0.00 | 0.00 | 64 | 1013.2 |
| 20260508163536 | 71 | 176 | 2.0 | 7.0 | 0.00 | 0.00 | 0.00 | 65 | 1013.2 |
| 20260508162517 | 69 | 133 | 2.0 | 5.0 | 0.00 | 0.00 | 0.00 | 67 | 1013.4 |
| 20260508161517 | 68 | 185 | 1.0 | 6.0 | 0.00 | 0.00 | 0.00 | 69 | 1013.7 |
| 20260508160517 | 68 | 168 | 1.0 | 3.0 | 0.00 | 0.00 | 0.00 | 69 | 1013.9 |
| 20260508155537 | 68 | 119 | 1.0 | 5.0 | 0.00 | 0.00 | 0.00 | 70 | 1014.1 |
| 20260508154517 | 67 | 117 | 1.0 | 5.0 | 0.00 | 0.00 | 0.00 | 71 | 1014.4 |
| 20260508153517 | 67 | 211 | 1.0 | 5.0 | 0.00 | 0.00 | 0.00 | 71 | 1014.5 |
| 20260508152518 | 67 | 207 | 2.0 | 5.0 | 0.00 | 0.00 | 0.00 | 70 | 1014.5 |
| 20260508151518 | 67 | 218 | 1.0 | 3.0 | 0.00 | 0.00 | 0.00 | 70 | 1014.6 |
| 20260508150518 | 67 | 155 | 1.0 | 3.0 | 0.00 | 0.00 | 0.00 | 69 | 1014.7 |
| 20260508145518 | 67 | 112 | 2.0 | 4.0 | 0.00 | 0.00 | 0.00 | 69 | 1014.4 |
| 20260508144518 | 67 | 156 | 1.0 | 3.0 | 0.00 | 0.00 | 0.00 | 69 | 1014.6 |
| 20260508143515 | 68 | 144 | 1.0 | 4.0 | 0.00 | 0.00 | 0.00 | 68 | 1014.6 |
| 20260508142515 | 68 | 110 | 1.0 | 4.0 | 0.00 | 0.00 | 0.00 | 67 | 1014.5 |
| 20260508141516 | 68 | 143 | 0.0 | 2.0 | 0.00 | 0.00 | 0.00 | 68 | 1014.7 |
| 20260508140516 | 68 | 220 | 1.0 | 3.0 | 0.00 | 0.00 | 0.00 | 68 | 1014.8 |
| 20260508135536 | 67 | 75 | 1.0 | 3.0 | 0.00 | 0.00 | 0.00 | 70 | 1014.8 |
| 20260508134516 | 66 | 91 | 1.0 | 3.0 | 0.00 | 0.00 | 0.00 | 72 | 1014.7 |
| 20260508133536 | 66 | 117 | 1.0 | 5.0 | 0.00 | 0.00 | 0.00 | 73 | 1014.6 |
| 20260508132517 | 65 | 83 | 1.0 | 3.0 | 0.00 | 0.00 | 0.00 | 75 | 1014.6 |
| 20260508131517 | 64 | 80 | 0.0 | 2.0 | 0.00 | 0.00 | 0.00 | 79 | 1014.7 |
| 20260508130517 | 62 | 88 | 1.0 | 3.0 | 0.00 | 0.00 | 0.00 | 86 | 1014.9 |
| 20260508125517 | 60 | 93 | 0.0 | 1.0 | 0.00 | 0.00 | 0.00 | 91 | 1015.1 |
| 20260508124517 | 59 | 78 | 0.0 | 1.0 | 0.00 | 0.00 | 0.00 | 92 | 1015.0 |
| 20260508123518 | 59 | 69 | 0.0 | 1.0 | 0.00 | 0.00 | 0.00 | 92 | 1015.0 |
| 20260508122518 | 58 | 51 | 0.0 | 2.0 | 0.00 | 0.00 | 0.00 | 92 | 1015.3 |
| 20260508121518 | 58 | 60 | 0.0 | 1.0 | 0.00 | 0.00 | 0.00 | 92 | 1015.0 |
| 20260508120518 | 58 | 72 | 0.0 | 2.0 | 0.00 | 0.00 | 0.00 | 91 | 1014.9 |
| 20260508115518 | 58 | 67 | 0.0 | 1.0 | 0.00 | 0.00 | 0.00 | 90 | 1014.8 |
| 20260508114518 | 59 | 86 | 0.0 | 1.0 | 0.00 | 0.00 | 0.00 | 90 | 1014.9 |
| 20260508113515 | 59 | 33 | 0.0 | 1.0 | 0.00 | 0.00 | 0.00 | 89 | 1015.1 |